Regional Weather Roundup
Issued by NWS

Home | Current Version | Previous Version | Text Only | Print | Product List | Glossary Off
Versions: 1 2 3 4 5 6 7 8 9 10 11 12 13 14 15 16 17 18 19 20 21 22 23 24 25 26 27 28 29 30 31 32 33 34 35 36 37 38 39 40 41 42 43 44 45 46 47 48 49 50

000
ASUS45 KCYS 201010
RWRWY

WYOMING REGIONAL WEATHER ROUNDUP
NATIONAL WEATHER SERVICE CHEYENNE WY
400 AM MDT WED AUG 20 2014

NOTE:  "FAIR" INDICATES FEW OR NO CLOUDS BELOW 12,000 FEET
WITH NO SIGNIFICANT WEATHER AND/OR OBSTRUCTIONS TO VISIBILITY.

WYZ001-201100-
YELLOWSTONE NATIONAL PARK

CITY           SKY/WX    TMP DP  RH WIND       PRES   REMARKS
LK YELLOWSTONE   N/A     41  39  93 CALM      30.09S
W YELLOWSTONE  NOT AVBL

$$
WYZ002>013-054>058-071-098>099-201100-
NORTHERN WYOMING

CITY           SKY/WX    TMP DP  RH WIND       PRES   REMARKS
JACKSON        PTCLDY    45  45 100 CALM      30.01S
CODY           MOCLDY    66  45  45 SW7G18    29.84F
GREYBULL       CLOUDY    67  53  61 SE3       29.77S
WORLAND        CLOUDY    65  54  67 S7        29.80R
SHERIDAN       CLOUDY    71  43  36 NW5       29.75S
BUFFALO        CLOUDY    66  44  45 W5        29.80F
GILLETTE       CLOUDY    71  46  40 S9        29.76S
HULETT         FAIR      73  45  35 MISG      29.78
NEWCASTLE      FAIR      68  50  52 SE5       29.81

$$
WYZ014>020-022>026-101>103-201100-
CENTRAL WYOMING

CITY           SKY/WX    TMP DP  RH WIND       PRES   REMARKS
BIG PINEY      PTCLDY    45  41  86 CALM      30.04S
PINEDALE       PTSUNNY   46  43  87 CALM      30.03S
DUBOIS         FAIR      46  41  81 NW6       30.00F
LANDER         CLOUDY    61  42  49 SE3       29.88F
RIVERTON       CLOUDY    62  44  51 NW10      29.88S
CASPER         MOCLDY    65  50  58 SW18      29.87F
DOUGLAS        CLOUDY    69  50  50 SW8       29.89R

$$
WYZ021-027>030-104>119-201100-
SOUTHERN WYOMING

CITY           SKY/WX    TMP DP  RH WIND       PRES   REMARKS
EVANSTON       CLOUDY    51  50  96 S6        30.06R
KEMMERER       CLOUDY    52  45  76 NW7       30.05S
FORT BRIDGER     N/A     55  52  89 W3        30.08S
ROCK SPRINGS   MOCLDY    52  49  89 SW9       30.03S
DIXON          CLOUDY    57  55  94 CALM      30.06S
RAWLINS        LGT RAIN  57  52  83 SW10      30.02S
SARATOGA       CLOUDY    54  52  94 MISG      30.06R
LARAMIE        LGT RAIN  54  52  93 SE6       30.05F
CHEYENNE       CLOUDY    63  50  62 NW8       29.96S
TORRINGTON     CLOUDY    68  51  54 W7        29.83R
PINE BLUFFS    DRIZZLE   61  54  77 SW6       29.91S

$$


USA.gov is the U.S. government's official web portal to all federal, state and local government web resources and services.